[[{"header":{"parameterUnit":"m.s-1","parameterCategory":1,"la1":30.2991,"la2":30.254,"lo1":-89.0895,"lo2":-89.0444,"dy":0.0017,"dx":0.0017,"nx":28,"ny":28,"refTime":"2024-06-13T21:00:00:Z","depth":0,"parameterNumber":2,"parameterNumberName":"U-component_of_WINDS"},"data":[0,0,0,0,0,0,0,0,0,0,0,0,0,0,0,0,0,0,0,0,0,0,0,0,0,0,0,0,0,0,0,0,0,0,0,0,0,0,0,0,0,0,0,0,0,0,0,0,0,0,0,0,0,0,0,0,0,0,-1.8088,-1.8088,0,-1.8104,-1.8104,-1.8104,-1.8077,-1.8076,-1.8075,-1.8075,-1.8092,-1.8094,-1.8095,0,0,0,0,0,0,0,0,0,0,0,0,0,-1.804,-1.8041,-1.8088,-1.8088,-1.8089,-1.8104,-1.8104,-1.8104,-1.8077,-1.8076,-1.8075,-1.8074,-1.8092,-1.8094,-1.8095,0,0,0,0,0,0,0,0,0,0,0,0,0,-1.8059,-1.8042,-1.8088,-1.8077,-1.8076,-1.8104,-1.8104,-1.8104,-1.8078,-1.8076,-1.8075,-1.8074,-1.8091,-1.8093,-1.8095,-1.8135,0,0,-1.8101,-1.8102,0,0,0,0,0,0,0,0,-1.8058,-1.8061,-1.8078,-1.8078,-1.8077,-1.8087,-1.8094,-1.8115,-1.8078,-1.8077,-1.8075,-1.8073,-1.8092,-1.8094,-1.81,-1.8136,-1.8136,-1.8102,-1.8103,-1.8104,-1.8104,0,0,0,0,0,0,0,-1.8057,-1.806,-1.8094,-1.8079,-1.8078,-1.8073,-1.8074,-1.8097,-1.8092,-1.8077,-1.8075,-1.8077,-1.8091,-1.8098,-1.81,-1.8137,-1.8102,-1.8103,-1.8104,-1.8105,-1.8211,-1.8213,0,0,0,0,0,0,-1.8056,-1.8059,-1.8094,-1.8095,-1.8064,-1.8075,-1.8076,-1.8085,-1.8092,-1.8091,-1.8079,-1.8076,-1.8095,-1.8098,-1.81,-1.815,-1.8104,-1.8105,-1.8107,-1.8209,-1.8211,-1.8213,0,0,0,0,0,0,-1.8055,-1.806,-1.8093,-1.8077,-1.808,-1.8077,-1.8088,-1.8086,-1.8093,-1.8093,-1.8092,-1.8086,-1.8094,-1.8098,-1.8127,-1.815,-1.8106,-1.8108,-1.8208,-1.821,-1.8212,-1.8247,0,0,0,0,0,0,-1.8054,-1.8059,-1.8073,-1.8077,-1.8081,-1.8118,-1.8089,-1.8088,-1.8096,-1.8093,-1.8099,-1.8099,-1.8093,-1.8125,-1.8129,-1.8152,-1.811,-1.8205,-1.8209,-1.8211,-1.8244,-1.825,-1.8256,0,0,0,0,0,-1.8053,-1.8082,-1.8074,-1.8078,-1.8098,-1.812,-1.8122,-1.8114,-1.8098,-1.8113,-1.8114,-1.8099,-1.8147,-1.8128,-1.8133,-1.8156,-1.8204,-1.8208,-1.8211,-1.8241,-1.8249,-1.8256,0,0,0,0,0,0,-1.808,-1.8082,-1.8073,-1.8104,-1.8112,-1.8115,-1.8133,-1.8122,-1.8135,-1.8132,-1.8123,-1.8124,-1.8157,-1.816,-1.8138,-1.8198,-1.8173,-1.8178,-1.8194,-1.8202,-1.8208,-1.8206,-1.8111,0,0,0,0,0,-1.809,-1.8106,-1.8107,-1.8135,-1.8139,-1.8136,-1.8145,-1.8138,-1.8146,-1.815,-1.8152,-1.8162,-1.8179,-1.8191,-1.8206,-1.8245,-1.8248,-1.8264,-1.827,-1.8275,-1.8279,-1.8304,-1.8312,-1.8225,-1.8225,-1.8225,0,0,-1.8109,-1.8113,-1.8123,-1.814,-1.8145,-1.8165,-1.8138,-1.8158,-1.8173,-1.8153,-1.8181,-1.8184,-1.8194,-1.823,-1.8245,-1.8233,-1.8304,-1.828,-1.8284,-1.8285,-1.8308,-1.8316,-1.8324,-1.8228,-1.8227,-1.8227,0,0,-1.8156,-1.8159,-1.8183,-1.819,-1.8199,-1.8197,-1.8204,-1.8209,-1.821,-1.8239,-1.8226,-1.8244,-1.8273,-1.8282,-1.829,-1.8346,-1.8334,-1.8351,-1.8382,-1.8406,-1.8413,-1.8419,-1.8441,-1.8449,-1.8356,-1.8356,-1.8356,0,-1.8179,-1.8206,-1.8197,-1.822,-1.8229,-1.8213,-1.8239,-1.8246,-1.826,-1.8268,-1.8254,-1.8294,-1.8299,-1.8338,-1.8352,-1.8358,-1.8367,-1.835,-1.8413,-1.8419,-1.8424,-1.8445,-1.8453,-1.8358,-1.8357,-1.8357,-1.8357,0,-1.8236,-1.8255,-1.8274,-1.8289,-1.8301,-1.8325,-1.8322,-1.8335,-1.833,-1.833,-1.8362,-1.8369,-1.8387,-1.8396,-1.839,-1.8436,-1.8428,-1.8414,-1.8389,-1.8435,-1.8454,-1.8462,-1.8361,-1.836,-1.8359,-1.8359,0,0,-1.8297,-1.8309,-1.8316,-1.8325,-1.8335,-1.8351,-1.8376,-1.8395,-1.8407,-1.8419,-1.8442,-1.8469,-1.8457,-1.8467,-1.8462,-1.8483,-1.853,-1.8467,-1.8467,-1.848,-1.8585,-1.8596,-1.8605,-1.8523,-1.8525,-1.8526,-1.8584,0,-1.8344,-1.8386,-1.8382,-1.8423,-1.8443,-1.843,-1.8452,-1.8463,-1.8465,-1.8484,-1.8487,-1.8508,-1.8489,-1.8496,-1.8516,-1.852,-1.8551,-1.8516,-1.8546,-1.8547,-1.8544,-1.8614,-1.8625,-1.868,-1.8592,-1.8593,-1.8594,0,-1.8404,-1.8418,-1.8462,-1.8473,-1.8481,-1.8501,-1.852,-1.8537,-1.8551,-1.8551,-1.8565,-1.8558,-1.8586,-1.8562,-1.8603,-1.8579,-1.8592,-1.8597,-1.8599,-1.8601,-1.8573,-1.862,-1.8697,-1.8705,-1.8605,-1.8604,-1.8604,0,-1.8446,-1.8477,-1.8507,-1.8515,-1.8528,-1.8543,-1.855,-1.8562,-1.8575,-1.8592,-1.8601,-1.8621,-1.8632,-1.865,-1.865,-1.8631,-1.8693,-1.8667,-1.8696,-1.8696,-1.8708,-1.8708,-1.8789,-1.8716,-1.8716,-1.8716,-1.8715,0,-1.8499,-1.8527,-1.8527,-1.8546,-1.8578,-1.8574,-1.8606,-1.8611,-1.8623,-1.8645,-1.8635,-1.8656,-1.8655,-1.8677,-1.8678,-1.8713,-1.8718,-1.8721,-1.8721,-1.8722,-1.8722,-1.873,-1.8727,-1.8718,-1.8717,-1.8717,-1.8716,0,-1.8551,-1.8552,-1.8585,-1.8596,-1.86,-1.8623,-1.8634,-1.8654,-1.8657,-1.8685,-1.8691,-1.8697,-1.8723,-1.8725,-1.8755,-1.8756,-1.88,-1.8795,-1.8795,-1.8794,-1.8823,-1.8821,-1.8913,-1.8927,-1.8844,-1.8845,-1.8845,0,-1.8585,-1.8606,-1.862,-1.8634,-1.8642,-1.8664,-1.8678,-1.8676,-1.8691,-1.8711,-1.8729,-1.8754,-1.8774,-1.8817,-1.8825,-1.8849,-1.8846,-1.8877,-1.8849,-1.8851,-1.8848,-1.8847,-1.8851,-1.8882,-1.8883,-1.8883,-1.8884,0,-1.8646,-1.8646,-1.8665,-1.8686,-1.8703,-1.8719,-1.8735,-1.8747,-1.8748,-1.8766,-1.8793,-1.8809,-1.8841,-1.8867,-1.8892,-1.8901,-1.8894,-1.8893,-1.8901,-1.8903,-1.8902,-1.8905,-1.881,-1.889,-1.889,-1.8889,-1.8889,-1.8889,-1.869,-1.871,-1.8724,-1.8747,-1.8759,-1.8775,-1.8795,-1.8802,-1.8823,-1.8849,-1.8848,-1.8878,-1.8896,-1.8928,-1.8939,-1.8965,-1.8955,-1.8966,-1.8969,-1.8972,-1.8976,-1.8898,-1.8969,-1.8969,-1.8969,-1.8969,-1.8969,0,-1.8752,-1.8762,-1.8783,-1.8806,-1.8825,-1.8817,-1.8834,-1.8852,-1.8878,-1.8895,-1.8915,-1.8948,-1.8975,-1.8987,-1.9014,-1.9032,-1.903,-1.904,-1.9038,-1.9041,-1.8983,-1.8973,-1.9041,-1.9041,-1.9041,-1.9041,-1.9041,-1.9041,-1.8787,-1.882,-1.8823,-1.8864,-1.8874,-1.8903,-1.8914,-1.893,-1.8944,-1.8981,-1.9003,-1.901,-1.9026,-1.9055,-1.908,-1.9083,-1.9094,-1.9106,-1.9108,-1.9052,-1.9045,-1.9038,-1.9029,-1.9108,-1.9108,-1.9165,-1.9165,-1.9165]},{"header":{"parameterUnit":"m.s-1","parameterCategory":1,"la1":30.2991,"la2":30.254,"lo1":-89.0895,"lo2":-89.0444,"dy":0.0017,"dx":0.0017,"nx":28,"ny":28,"refTime":"2024-06-13T21:00:00:Z","depth":0,"parameterNumber":3,"parameterNumberName":"V-component_of_WINDS"},"data":[0,0,0,0,0,0,0,0,0,0,0,0,0,0,0,0,0,0,0,0,0,0,0,0,0,0,0,0,0,0,0,0,0,0,0,0,0,0,0,0,0,0,0,0,0,0,0,0,0,0,0,0,0,0,0,0,0,0,3.1643,3.1644,0,3.1758,3.1759,3.176,3.1841,3.1841,3.1842,3.1842,3.1954,3.1956,3.1958,0,0,0,0,0,0,0,0,0,0,0,0,0,3.1485,3.1487,3.1643,3.1644,3.1646,3.1758,3.1759,3.1761,3.184,3.1841,3.1842,3.1843,3.1953,3.1956,3.1959,0,0,0,0,0,0,0,0,0,0,0,0,0,3.1572,3.1488,3.1643,3.1699,3.1705,3.1757,3.1759,3.1761,3.184,3.1841,3.1842,3.1843,3.1952,3.1955,3.1959,3.1962,0,0,3.197,3.1971,0,0,0,0,0,0,0,0,3.1567,3.1577,3.1689,3.1695,3.1702,3.1786,3.1744,3.1828,3.184,3.1789,3.1842,3.1844,3.1897,3.1905,3.1924,3.1967,3.1972,3.197,3.1972,3.1974,3.1975,0,0,0,0,0,0,0,3.156,3.1573,3.1688,3.1691,3.1699,3.1716,3.173,3.1761,3.1836,3.1793,3.18,3.1812,3.19,3.192,3.1927,3.1973,3.197,3.1973,3.1975,3.1977,3.2021,3.202,0,0,0,0,0,0,3.1546,3.1567,3.1685,3.1692,3.1636,3.1718,3.1733,3.1758,3.1836,3.1849,3.1811,3.1816,3.1914,3.1923,3.1932,3.1938,3.1974,3.1977,3.1979,3.2022,3.2021,3.2019,0,0,0,0,0,0,3.1543,3.1556,3.168,3.1631,3.1648,3.172,3.1747,3.176,3.178,3.185,3.1863,3.1819,3.1915,3.1927,3.1953,3.1943,3.1979,3.1982,3.2023,3.2021,3.202,3.1951,0,0,0,0,0,0,3.1538,3.1554,3.1558,3.1631,3.1651,3.1702,3.1747,3.1761,3.1787,3.1793,3.186,3.1872,3.1917,3.1948,3.1957,3.1948,3.1985,3.2024,3.2022,3.202,3.1955,3.1948,3.1942,0,0,0,0,0,3.1532,3.1534,3.1558,3.1572,3.1657,3.1701,3.1713,3.1766,3.1786,3.1789,3.1833,3.1869,3.1943,3.195,3.1961,3.1953,3.2025,3.2023,3.2021,3.1958,3.1949,3.1942,0,0,0,0,0,0,3.1457,3.1545,3.1572,3.1598,3.1642,3.1715,3.1721,3.1756,3.1793,3.1798,3.1861,3.1875,3.1894,3.1927,3.1933,3.1958,3.1988,3.1988,3.1936,3.1929,3.1922,3.1913,3.1988,0,0,0,0,0,3.1444,3.1474,3.1548,3.1564,3.1584,3.1648,3.167,3.1707,3.1754,3.1772,3.1819,3.1861,3.1893,3.1913,3.1947,3.196,3.1974,3.196,3.1953,3.1948,3.1946,3.1952,3.1946,3.2012,3.2012,3.2012,0,0,3.1416,3.1468,3.1483,3.155,3.1588,3.1616,3.1663,3.1691,3.1711,3.1776,3.1804,3.1839,3.189,3.1909,3.192,3.1937,3.1931,3.1945,3.194,3.1942,3.1949,3.1943,3.1937,3.2011,3.2011,3.2011,0,0,3.138,3.1423,3.1439,3.1476,3.1534,3.1576,3.158,3.1647,3.1673,3.1703,3.1751,3.1775,3.183,3.1863,3.1888,3.1861,3.1894,3.187,3.1834,3.184,3.1834,3.183,3.1818,3.1813,3.1868,3.1868,3.1868,0,3.1337,3.1383,3.1443,3.1467,3.1494,3.1555,3.157,3.1602,3.1667,3.1682,3.1701,3.177,3.1808,3.1835,3.1828,3.1847,3.185,3.1862,3.1831,3.1827,3.1824,3.1813,3.1808,3.1865,3.1865,3.1865,3.1866,0,3.1327,3.1358,3.1363,3.1425,3.1453,3.1472,3.1532,3.1552,3.1586,3.1625,3.1652,3.1701,3.1744,3.1753,3.1787,3.1783,3.1792,3.182,3.185,3.1813,3.1803,3.18,3.1859,3.1861,3.1862,3.1863,0,0,3.1247,3.1341,3.1342,3.1369,3.1436,3.1459,3.148,3.1524,3.1538,3.158,3.1597,3.1641,3.1667,3.1694,3.1732,3.1736,3.1708,3.1764,3.1765,3.1749,3.1703,3.168,3.1675,3.1732,3.1731,3.1731,3.1698,0,3.1219,3.1262,3.1315,3.1338,3.1365,3.1422,3.1439,3.148,3.1517,3.1543,3.1583,3.1612,3.1645,3.1661,3.1669,3.171,3.1699,3.1713,3.1744,3.1745,3.1728,3.167,3.1647,3.1614,3.1695,3.1695,3.1694,0,3.1193,3.1232,3.1258,3.132,3.1334,3.1349,3.1391,3.1417,3.1463,3.1489,3.1518,3.1559,3.158,3.1608,3.1637,3.1645,3.1661,3.1682,3.1682,3.1686,3.1716,3.167,3.1605,3.1599,3.1689,3.169,3.169,0,3.1128,3.1188,3.1211,3.1233,3.1307,3.1315,3.1346,3.1393,3.1415,3.1452,3.1466,3.1504,3.1524,3.1551,3.1599,3.1616,3.1621,3.1654,3.164,3.1639,3.1637,3.1636,3.1572,3.1651,3.1651,3.1651,3.1651,0,3.1091,3.1104,3.1183,3.1196,3.1211,3.127,3.1283,3.1318,3.136,3.1379,3.143,3.1447,3.1511,3.1534,3.1571,3.1587,3.1596,3.1615,3.1625,3.161,3.1607,3.162,3.1622,3.165,3.165,3.165,3.1651,0,3.1021,3.1075,3.1103,3.117,3.1187,3.1195,3.1251,3.1264,3.1304,3.1327,3.1336,3.1396,3.1425,3.1477,3.1521,3.1546,3.1553,3.1571,3.1538,3.1543,3.1525,3.1525,3.1465,3.1459,3.1543,3.1542,3.1541,0,3.0993,3.1004,3.1072,3.1089,3.1118,3.1145,3.1168,3.1225,3.1246,3.1298,3.1305,3.1339,3.1369,3.1412,3.1458,3.1491,3.1509,3.1485,3.1514,3.1497,3.1505,3.1503,3.1503,3.1478,3.1477,3.1476,3.1475,0,3.0935,3.0961,3.0992,3.1032,3.1058,3.1091,3.1128,3.1138,3.1203,3.1223,3.1255,3.1278,3.1323,3.1354,3.1393,3.1422,3.1458,3.1466,3.1464,3.1447,3.1427,3.1435,3.1517,3.1467,3.1468,3.1468,3.1469,3.1469,3.0884,3.0895,3.0944,3.0976,3.101,3.1042,3.1057,3.1098,3.1126,3.1167,3.1199,3.1227,3.127,3.1327,3.1353,3.1374,3.139,3.1388,3.1387,3.1385,3.1378,3.1425,3.1381,3.1382,3.1382,3.1382,3.1382,0,3.0826,3.086,3.089,3.0939,3.0963,3.0997,3.1038,3.1055,3.108,3.1118,3.1146,3.118,3.121,3.1258,3.1292,3.1299,3.1315,3.1305,3.1304,3.1309,3.1362,3.136,3.1291,3.1291,3.1291,3.1291,3.1291,3.1291,3.08,3.082,3.085,3.0886,3.092,3.0949,3.0968,3.0997,3.1027,3.1063,3.1089,3.1121,3.1162,3.1198,3.1226,3.1239,3.1248,3.1231,3.1249,3.1297,3.1306,3.1314,3.1312,3.1234,3.1233,3.1194,3.1194,3.1193]}]]